Location: ??????
(42.0089°N, 44.3281°E)
Time: 18:07:35
(UTC+00:00)

USA 267 - Pass Details

Date: 03 June 2022
Orbit: 1101 x 1106 km, 123.0° (Epoch: 28 June)

Event Time Altitude Azimuth Distance (km) Brightness Sun altitude
Rises 20:06:21 0° 82° (E) 3,917 6.1 -24.4°
Reaches altitude 10° 20:09:11 10° 72° (ENE) 2,960 5.6 -24.5°
Maximum altitude 20:14:34 29° 16° (NNE) 1,916 5.1 -24.7°
Drops below altitude 10° 20:19:58 10° 320° (NW) 2,965 6.3 -24.9°
Sets 20:22:47 0° 310° (NW) 3,925 6.9 -25.0°
